INTELSAT 33E DEB, 64400

Orbit data source: Space-Track

INTELSAT 33E DEB, 64400 is space debris in GEO originally from a launch on Wed, 24 Aug 2016 UTC launched from the French Guiana (FRGUI). Debris objects in space refer to the collection of defunct objects orbiting the Earth. Examples of debris include non-operational satellites, rocket bodies, and fragments generated from explosions, collisions, or faulty payload assembly.

Not visible in the next 10 days
Identifier
64400, 2016-053AE
Orbit
GEO
Last TLE update
2 days ago
Origin
Flag of UnknownINTELU (Unknown / ITSO)
Manufacturer
Boeing/ES
Mission
Spacecraft
Bus & Motor
Unknown
Mass
Unknown
Launch date (UTC)
2016-08-24 (9 years ago)
Launch vehicle
Unknown
Launch site
French Guiana (FRGUI)
Object type
Payload
Rocket body
Debris
Shape & HBR
Unknown
Radar Cross Section
RCS unknown

Expand to show TLE details & history

TLE from 2 days ago
0 INTELSAT 33E DEB
1 64400U 16053AE  25180.30074646 -.00000050  00000-0  00000-0 0  9991
2 64400   0.5991  82.4883 0468563 319.1413 321.8369  1.03345257  2517
Epoch: 2025-06-29T07:13Z
TLE epoch observation values (Epoch: 2025-06-29T07:13:04.494Z)
Latitude
-0.60253°
Longitude
-25.89506°
Altitude
33,467.576 km
Speed
3.219 km/s
True Right ascension
00h 00m 00s
True Declination
0° 36' 07"
Sunlit
Object was in daylight at epoch
Visualization orbit readout
Latitude
-0.25817°
Longitude
30.18974°
Altitude
33,066.974 km
Speed
3.25 km/s
Apparent Right ascension
04h 10m 30s
Apparent Declination
-5° 53' 46"
Sunlit
Object is in daylight
Visualization observer readout
Local Sidereal Time
20:36:40
Azimuth
79.125° E
Elevation
-21.693°
Doppler factor
1
Orbital elements
Apogee altitude
36,883.875 km
Perigee altitude
33,011.141 km
Semi-major axis
41,325.645 km
Eccentricity
0.04686
Inclination
0.5991°
RAAN
82.4883°
Arg. of periapsis
319.1413°
True anomaly
Unknown
Mean anomaly
321.8369°
Eccentric anomaly
Unknown
Mean motion
0.25835 °/min
Orbital period
1,393.44 mins
BSTAR
0
Loading historical data...
64400 neighbors
Loading maneuver chart data...
Loading SW <> Apogee altitude chart data...
Loading historical data...
Loading historical data...
Loading historical data...
Loading historical data...
Loading historical data...
Loading historical data...
Loading historical data...

INTELSAT 33E DEB Visibility

Observer location: undefined°, undefined°

INTELSAT 33E DEB is likely not visible in the next few days
Span
Click to sort rows by Start time (UTC) header in descending order
Start Az.
Max El. time (UTC)
Max El. Az.
Max El.
End time (UTC)
End Az.
|